| time (UTC) | temp C | wind direction | speed KPH | gust KPH | rain 1hr cm | rain 24hr cm | rain mn cm | humidity % | barometer mb |
| 20260905183209 | 13 | 315 | 1.6 | 3.2 | 0.00 | 0.00 | 0.00 | 99 | 1022.2 |
| 20260905182659 | 13 | 315 | 1.6 | 3.2 | 0.00 | 0.00 | 0.00 | 99 | 1022.2 |
| 20260905180616 | 13 | 315 | 1.6 | 3.2 | 0.00 | 0.00 | 0.00 | 97 | 1022.0 |
| 20260905180105 | 13 | 315 | 1.6 | 3.2 | 0.00 | 0.00 | 0.00 | 95 | 1022.0 |
| 20260905175554 | 13 | 315 | 0.0 | 1.6 | 0.00 | 0.00 | 0.00 | 95 | 1021.9 |
| 20260905175044 | 13 | 315 | 1.6 | 3.2 | 0.00 | 0.00 | 0.00 | 94 | 1021.9 |
| 20260905174533 | 14 | 315 | 1.6 | 3.2 | 0.00 | 0.00 | 0.00 | 92 | 1021.8 |
| 20260905174022 | 14 | 315 | 0.0 | 1.6 | 0.00 | 0.00 | 0.00 | 89 | 1021.7 |
| 20260905173511 | 14 | 315 | 1.6 | 3.2 | 0.00 | 0.00 | 0.00 | 87 | 1021.6 |
| 20260905173001 | 15 | 315 | 1.6 | 3.2 | 0.00 | 0.00 | 0.00 | 86 | 1021.5 |
| 20260905171939 | 15 | 315 | 1.6 | 3.2 | 0.00 | 0.00 | 0.00 | 82 | 1021.5 |
| 20260905171428 | 16 | 315 | 1.6 | 3.2 | 0.00 | 0.00 | 0.00 | 81 | 1021.4 |
| 20260905170917 | 16 | 315 | 1.6 | 4.8 | 0.00 | 0.00 | 0.00 | 80 | 1021.4 |
| 20260905170406 | 16 | 315 | 1.6 | 6.4 | 0.00 | 0.00 | 0.00 | 80 | 1021.3 |
| 20260905165855 | 17 | 315 | 3.2 | 8.0 | 0.00 | 0.00 | 0.00 | 81 | 1021.3 |
| 20260905165344 | 17 | 315 | 3.2 | 6.4 | 0.00 | 0.00 | 0.00 | 80 | 1021.3 |
| 20260905164322 | 18 | 315 | 3.2 | 4.8 | 0.00 | 0.00 | 0.00 | 75 | 1021.0 |
| 20260905163811 | 18 | 315 | 3.2 | 6.4 | 0.00 | 0.00 | 0.00 | 74 | 1020.9 |
| 20260905163259 | 18 | 315 | 3.2 | 4.8 | 0.00 | 0.00 | 0.00 | 76 | 1020.9 |
| 20260905162748 | 18 | 315 | 4.8 | 6.4 | 0.00 | 0.00 | 0.00 | 78 | 1020.9 |
| 20260905162237 | 17 | 315 | 3.2 | 8.0 | 0.00 | 0.00 | 0.00 | 80 | 1020.9 |
| 20260905161726 | 17 | 315 | 3.2 | 6.4 | 0.00 | 0.00 | 0.00 | 82 | 1020.9 |
| 20260905160704 | 16 | 315 | 3.2 | 6.4 | 0.00 | 0.00 | 0.00 | 86 | 1020.8 |
| 20260905155642 | 16 | 315 | 4.8 | 8.0 | 0.00 | 0.00 | 0.00 | 81 | 1020.8 |
| 20260905155131 | 17 | 315 | 4.8 | 8.0 | 0.00 | 0.00 | 0.00 | 77 | 1020.8 |
| 20260905154620 | 17 | 315 | 4.8 | 8.0 | 0.00 | 0.00 | 0.00 | 73 | 1020.5 |
| 20260905154109 | 17 | 315 | 8.0 | 24.1 | 0.00 | 0.00 | 0.00 | 69 | 1020.6 |
| 20260905153558 | 18 | 315 | 9.7 | 19.3 | 0.00 | 0.00 | 0.00 | 64 | 1020.6 |
| 20260905153046 | 18 | 315 | 4.8 | 11.3 | 0.00 | 0.00 | 0.00 | 61 | 1020.5 |
| 20260905152535 | 19 | 315 | 6.4 | 9.7 | 0.00 | 0.00 | 0.00 | 59 | 1020.5 |
| 20260905151513 | 18 | 315 | 4.8 | 6.4 | 0.00 | 0.00 | 0.00 | 59 | 1020.5 |
| 20260905151001 | 18 | 315 | 4.8 | 9.7 | 0.00 | 0.00 | 0.00 | 61 | 1020.5 |
| 20260905150450 | 18 | 315 | 6.4 | 9.7 | 0.00 | 0.00 | 0.00 | 63 | 1020.5 |
| 20260905145939 | 18 | 315 | 4.8 | 11.3 | 0.00 | 0.00 | 0.00 | 63 | 1020.5 |
| 20260905145428 | 18 | 315 | 4.8 | 11.3 | 0.00 | 0.00 | 0.00 | 60 | 1020.4 |
| 20260905144917 | 18 | 315 | 4.8 | 8.0 | 0.00 | 0.00 | 0.00 | 58 | 1020.4 |
| 20260905144406 | 18 | 315 | 4.8 | 11.3 | 0.00 | 0.00 | 0.00 | 56 | 1020.4 |
| 20260905143854 | 19 | 315 | 8.0 | 12.9 | 0.00 | 0.00 | 0.00 | 54 | 1020.5 |
| 20260905143343 | 20 | 315 | 4.8 | 8.0 | 0.00 | 0.00 | 0.00 | 52 | 1020.6 |
| 20260905142831 | 21 | 315 | 6.4 | 9.7 | 0.00 | 0.00 | 0.00 | 50 | 1020.5 |
| 20260905142320 | 22 | 315 | 6.4 | 12.9 | 0.00 | 0.00 | 0.00 | 49 | 1020.5 |
| 20260905141257 | 22 | 315 | 4.8 | 9.7 | 0.00 | 0.00 | 0.00 | 48 | 1020.7 |
| 20260905140745 | 21 | 315 | 6.4 | 11.3 | 0.00 | 0.00 | 0.00 | 48 | 1020.7 |
| 20260905135722 | 22 | 315 | 6.4 | 9.7 | 0.00 | 0.00 | 0.00 | 48 | 1020.6 |
| 20260905135210 | 22 | 315 | 6.4 | 8.0 | 0.00 | 0.00 | 0.00 | 49 | 1020.7 |
| 20260905134658 | 21 | 315 | 8.0 | 11.3 | 0.00 | 0.00 | 0.00 | 49 | 1020.6 |
| 20260905133635 | 21 | 315 | 6.4 | 11.3 | 0.00 | 0.00 | 0.00 | 50 | 1020.6 |
| 20260905133124 | 21 | 315 | 4.8 | 9.7 | 0.00 | 0.00 | 0.00 | 51 | 1020.7 |
| 20260905132612 | 21 | 315 | 6.4 | 14.5 | 0.00 | 0.00 | 0.00 | 50 | 1020.7 |
| 20260905132101 | 21 | 315 | 4.8 | 9.7 | 0.00 | 0.00 | 0.00 | 51 | 1020.7 |
| 20260905131549 | 21 | 315 | 4.8 | 8.0 | 0.00 | 0.00 | 0.00 | 52 | 1020.8 |
| 20260905130526 | 20 | 315 | 4.8 | 9.7 | 0.00 | 0.00 | 0.00 | 57 | 1020.8 |
| 20260905130015 | 19 | 315 | 4.8 | 12.9 | 0.00 | 0.00 | 0.00 | 56 | 1020.9 |
| 20260905125503 | 18 | 315 | 6.4 | 11.3 | 0.00 | 0.00 | 0.00 | 56 | 1021.1 |
| 20260905124441 | 20 | 315 | 6.4 | 0.0 | 0.00 | 0.00 | 0.00 | 57 | 1020.9 |
| 20260905123929 | 19 | 315 | 8.0 | 17.7 | 0.00 | 0.00 | 0.00 | 57 | 1020.8 |
| 20260905123418 | 18 | 315 | 6.4 | 0.0 | 0.00 | 0.00 | 0.00 | 59 | 1021.0 |
| 20260905122907 | 18 | 315 | 4.8 | 8.0 | 0.00 | 0.00 | 0.00 | 61 | 1020.9 |
| 20260905122356 | 18 | 315 | 8.0 | 16.1 | 0.00 | 0.00 | 0.00 | 58 | 1021.0 |
| 20260905121844 | 18 | 315 | 8.0 | 14.5 | 0.00 | 0.00 | 0.00 | 60 | 1020.9 |
| 20260905121333 | 18 | 315 | 6.4 | 9.7 | 0.00 | 0.00 | 0.00 | 62 | 1020.8 |
| 20260905120822 | 17 | 315 | 4.8 | 8.0 | 0.00 | 0.00 | 0.00 | 74 | 1020.9 |
| 20260905120311 | 17 | 315 | 6.4 | 11.3 | 0.00 | 0.00 | 0.00 | 72 | 1020.9 |
| 20260905115800 | 18 | 315 | 4.8 | 11.3 | 0.00 | 0.00 | 0.00 | 69 | 1020.8 |
| 20260905115249 | 18 | 315 | 8.0 | 12.9 | 0.00 | 0.00 | 0.00 | 69 | 1020.8 |
| 20260905114737 | 18 | 315 | 4.8 | 9.7 | 0.00 | 0.00 | 0.00 | 71 | 1020.9 |
| 20260905114226 | 17 | 315 | 6.4 | 11.3 | 0.00 | 0.00 | 0.00 | 70 | 1020.9 |
| 20260905113715 | 18 | 315 | 8.0 | 12.9 | 0.00 | 0.00 | 0.00 | 68 | 1021.0 |
| 20260905113204 | 18 | 315 | 4.8 | 8.0 | 0.00 | 0.00 | 0.00 | 65 | 1020.9 |
| 20260905112652 | 18 | 315 | 6.4 | 11.3 | 0.00 | 0.00 | 0.00 | 69 | 1021.0 |
| 20260905112141 | 18 | 315 | 6.4 | 11.3 | 0.00 | 0.00 | 0.00 | 73 | 1020.9 |
| 20260905111630 | 18 | 315 | 4.8 | 8.0 | 0.00 | 0.00 | 0.00 | 78 | 1020.8 |
| 20260905111119 | 17 | 315 | 6.4 | 9.7 | 0.00 | 0.00 | 0.00 | 83 | 1021.0 |
| 20260905110608 | 17 | 315 | 6.4 | 0.0 | 0.00 | 0.00 | 0.00 | 80 | 1020.8 |
| 20260905110057 | 17 | 315 | 4.8 | 11.3 | 0.00 | 0.00 | 0.00 | 83 | 1020.9 |
| 20260905105545 | 17 | 315 | 4.8 | 8.0 | 0.00 | 0.00 | 0.00 | 82 | 1020.9 |
| 20260905105034 | 18 | 315 | 4.8 | 9.7 | 0.00 | 0.00 | 0.00 | 87 | 1020.8 |
| 20260905104523 | 17 | 315 | 6.4 | 12.9 | 0.00 | 0.00 | 0.00 | 90 | 1020.8 |
| 20260905104012 | 17 | 315 | 4.8 | 6.4 | 0.00 | 0.00 | 0.00 | 88 | 1020.7 |
| 20260905103501 | 18 | 315 | 6.4 | 9.7 | 0.00 | 0.00 | 0.00 | 92 | 1020.7 |
| 20260905102949 | 18 | 315 | 6.4 | 9.7 | 0.00 | 0.00 | 0.00 | 96 | 1020.8 |
| 20260905100905 | 17 | 315 | 6.4 | 12.9 | 0.00 | 0.00 | 0.00 | 10 | 1020.7 |
| 20260905100354 | 17 | 315 | 4.8 | 11.3 | 0.00 | 0.00 | 0.00 | 10 | 1020.8 |
| 20260905095842 | 16 | 315 | 4.8 | 9.7 | 0.00 | 0.00 | 0.00 | 10 | 1020.8 |
| 20260905095331 | 16 | 315 | 4.8 | 9.7 | 0.00 | 0.00 | 0.00 | 10 | 1020.8 |
| 20260905094820 | 16 | 315 | 4.8 | 8.0 | 0.00 | 0.00 | 0.00 | 10 | 1020.9 |
| 20260905094309 | 15 | 315 | 6.4 | 9.7 | 0.00 | 0.00 | 0.00 | 10 | 1020.9 |
| 20260905093759 | 15 | 315 | 4.8 | 9.7 | 0.00 | 0.00 | 0.00 | 10 | 1021.0 |
| 20260905093248 | 15 | 315 | 4.8 | 6.4 | 0.00 | 0.00 | 0.00 | 10 | 1020.9 |
| 20260905092737 | 14 | 315 | 4.8 | 9.7 | 0.00 | 0.00 | 0.00 | 10 | 1020.9 |
| 20260905091715 | 14 | 315 | 4.8 | 12.9 | 0.00 | 0.00 | 0.00 | 10 | 1021.0 |
| 20260905091205 | 14 | 315 | 3.2 | 6.4 | 0.00 | 0.00 | 0.00 | 10 | 1020.9 |
| 20260905090654 | 13 | 315 | 4.8 | 9.7 | 0.00 | 0.00 | 0.00 | 10 | 1020.9 |
| 20260905090143 | 13 | 315 | 4.8 | 9.7 | 0.00 | 0.00 | 0.00 | 10 | 1020.9 |
| 20260905085633 | 13 | 315 | 4.8 | 6.4 | 0.00 | 0.00 | 0.00 | 10 | 1020.8 |
| 20260905085122 | 13 | 315 | 3.2 | 6.4 | 0.00 | 0.00 | 0.00 | 10 | 1020.9 |
| 20260905084611 | 13 | 315 | 3.2 | 8.0 | 0.00 | 0.00 | 0.00 | 10 | 1020.8 |
| 20260905084101 | 12 | 315 | 4.8 | 9.7 | 0.00 | 0.00 | 0.00 | 10 | 1020.7 |
| 20260905083550 | 12 | 315 | 4.8 | 8.0 | 0.00 | 0.00 | 0.00 | 10 | 1020.7 |
| 20260905083040 | 12 | 315 | 3.2 | 0.0 | 0.00 | 0.00 | 0.00 | 10 | 1020.5 |
| 20260905082529 | 12 | 315 | 4.8 | 9.7 | 0.00 | 0.00 | 0.00 | 10 | 1020.6 |
| 20260905082018 | 12 | 315 | 4.8 | 9.7 | 0.00 | 0.00 | 0.00 | 10 | 1020.6 |
| 20260905081508 | 12 | 315 | 4.8 | 8.0 | 0.00 | 0.00 | 0.00 | 10 | 1020.6 |
| 20260905080957 | 12 | 315 | 4.8 | 6.4 | 0.00 | 0.00 | 0.00 | 10 | 1020.6 |
| 20260905080447 | 12 | 315 | 4.8 | 8.0 | 0.00 | 0.00 | 0.00 | 10 | 1020.6 |
| 20260905075936 | 11 | 315 | 6.4 | 9.7 | 0.00 | 0.00 | 0.00 | 10 | 1020.6 |
| 20260905075426 | 11 | 315 | 4.8 | 8.0 | 0.00 | 0.00 | 0.00 | 10 | 1020.4 |
| 20260905074915 | 11 | 315 | 3.2 | 6.4 | 0.00 | 0.00 | 0.00 | 10 | 1020.3 |
| 20260905074405 | 11 | 315 | 3.2 | 6.4 | 0.00 | 0.00 | 0.00 | 10 | 1020.1 |
| 20260905073855 | 11 | 315 | 3.2 | 6.4 | 0.00 | 0.00 | 0.00 | 10 | 1020.1 |
| 20260905073344 | 10 | 315 | 3.2 | 6.4 | 0.00 | 0.00 | 0.00 | 10 | 1020.0 |
| 20260905072834 | 10 | 315 | 3.2 | 6.4 | 0.00 | 0.00 | 0.00 | 10 | 1019.9 |
| 20260905072324 | 11 | 315 | 3.2 | 8.0 | 0.00 | 0.00 | 0.00 | 10 | 1019.9 |
| 20260905071813 | 11 | 315 | 3.2 | 6.4 | 0.00 | 0.00 | 0.00 | 10 | 1019.7 |
| 20260905071303 | 11 | 315 | 3.2 | 4.8 | 0.00 | 0.00 | 0.00 | 10 | 1019.8 |
| 20260905070752 | 10 | 315 | 3.2 | 6.4 | 0.00 | 0.00 | 0.00 | 10 | 1019.9 |
| 20260905070242 | 10 | 315 | 3.2 | 4.8 | 0.00 | 0.00 | 0.00 | 10 | 1020.0 |
| 20260905065732 | 10 | 315 | 3.2 | 6.4 | 0.00 | 0.00 | 0.00 | 10 | 1020.0 |
| 20260905065221 | 10 | 315 | 3.2 | 6.4 | 0.00 | 0.00 | 0.00 | 10 | 1020.0 |
| 20260905064711 | 10 | 315 | 4.8 | 8.0 | 0.00 | 0.00 | 0.00 | 10 | 1019.9 |
| 20260905064201 | 10 | 315 | 4.8 | 8.0 | 0.00 | 0.00 | 0.00 | 10 | 1019.9 |
| 20260905063650 | 10 | 315 | 3.2 | 6.4 | 0.00 | 0.00 | 0.00 | 10 | 1019.6 |
| 20260905063140 | 10 | 315 | 6.4 | 9.7 | 0.00 | 0.00 | 0.00 | 10 | 1020.0 |
| 20260905062119 | 10 | 315 | 4.8 | 8.0 | 0.00 | 0.00 | 0.00 | 10 | 1020.0 |
| 20260905061609 | 10 | 315 | 3.2 | 8.0 | 0.00 | 0.00 | 0.00 | 10 | 1019.7 |
| 20260905061059 | 10 | 315 | 3.2 | 6.4 | 0.00 | 0.00 | 0.00 | 10 | 1019.7 |
| 20260905060548 | 10 | 315 | 3.2 | 6.4 | 0.00 | 0.00 | 0.00 | 10 | 1019.3 |
| 20260905060038 | 10 | 315 | 4.8 | 6.4 | 0.00 | 0.00 | 0.00 | 10 | 1019.5 |
| 20260905055528 | 10 | 315 | 4.8 | 6.4 | 0.00 | 0.00 | 0.00 | 10 | 1019.8 |
| 20260905055018 | 10 | 315 | 4.8 | 9.7 | 0.00 | 0.00 | 0.00 | 10 | 1019.5 |
| 20260905054507 | 9 | 315 | 6.4 | 11.3 | 0.00 | 0.00 | 0.00 | 10 | 1018.4 |
| 20260905053957 | 9 | 315 | 6.4 | 9.7 | 0.00 | 0.00 | 0.00 | 10 | 1018.2 |
| 20260905053447 | 9 | 315 | 4.8 | 6.4 | 0.00 | 0.00 | 0.00 | 10 | 1018.6 |
| 20260905052936 | 10 | 315 | 3.2 | 6.4 | 0.00 | 0.00 | 0.00 | 10 | 1019.0 |
| 20260905052426 | 10 | 315 | 3.2 | 6.4 | 0.00 | 0.00 | 0.00 | 10 | 1019.1 |
| 20260905051916 | 10 | 315 | 3.2 | 4.8 | 0.00 | 0.00 | 0.00 | 10 | 1019.0 |
| 20260905051406 | 10 | 315 | 4.8 | 8.0 | 0.00 | 0.00 | 0.00 | 10 | 1019.1 |
| 20260905050855 | 10 | 315 | 3.2 | 8.0 | 0.00 | 0.00 | 0.00 | 10 | 1019.2 |
| 20260905050345 | 10 | 315 | 3.2 | 6.4 | 0.00 | 0.00 | 0.00 | 10 | 1019.0 |
| 20260905045835 | 10 | 315 | 3.2 | 9.7 | 0.00 | 0.00 | 0.00 | 10 | 1019.2 |
| 20260905045324 | 10 | 315 | 3.2 | 6.4 | 0.00 | 0.00 | 0.00 | 10 | 1019.3 |
| 20260905044814 | 10 | 315 | 4.8 | 11.3 | 0.00 | 0.00 | 0.00 | 10 | 1019.5 |
| 20260905044304 | 10 | 315 | 4.8 | 11.3 | 0.00 | 0.00 | 0.00 | 10 | 1019.1 |
| 20260905043753 | 11 | 315 | 3.2 | 4.8 | 0.00 | 0.00 | 0.00 | 10 | 1019.0 |
| 20260905043243 | 11 | 315 | 4.8 | 8.0 | 0.00 | 0.00 | 0.00 | 10 | 1018.9 |
| 20260905042732 | 11 | 315 | 3.2 | 6.4 | 0.00 | 0.00 | 0.00 | 10 | 1019.0 |
| 20260905042222 | 11 | 315 | 3.2 | 8.0 | 0.00 | 0.00 | 0.00 | 10 | 1019.0 |
| 20260905041201 | 11 | 315 | 4.8 | 9.7 | 0.00 | 0.00 | 0.00 | 10 | 1018.7 |
| 20260905040651 | 11 | 315 | 1.6 | 6.4 | 0.00 | 0.00 | 0.00 | 10 | 1018.5 |
| 20260905040140 | 11 | 315 | 1.6 | 4.8 | 0.00 | 0.00 | 0.00 | 10 | 1018.2 |
| 20260905035119 | 11 | 315 | 1.6 | 3.2 | 0.00 | 0.00 | 0.00 | 10 | 1018.3 |
| 20260905034609 | 11 | 315 | 1.6 | 4.8 | 0.00 | 0.00 | 0.00 | 10 | 1018.1 |
| 20260905034058 | 12 | 315 | 1.6 | 4.8 | 0.00 | 0.00 | 0.00 | 10 | 1017.7 |
| 20260905033548 | 12 | 315 | 3.2 | 4.8 | 0.00 | 0.00 | 0.00 | 10 | 1018.7 |
| 20260905033037 | 12 | 315 | 1.6 | 3.2 | 0.00 | 0.00 | 0.00 | 10 | 1017.8 |
| 20260905032527 | 12 | 315 | 3.2 | 4.8 | 0.00 | 0.00 | 0.00 | 10 | 1017.9 |
| 20260905032016 | 12 | 315 | 1.6 | 4.8 | 0.00 | 0.00 | 0.00 | 10 | 1017.5 |
| 20260905031506 | 12 | 315 | 1.6 | 3.2 | 0.00 | 0.00 | 0.00 | 10 | 1017.5 |
| 20260905030955 | 12 | 315 | 1.6 | 3.2 | 0.00 | 0.00 | 0.00 | 10 | 1017.6 |
| 20260905030445 | 12 | 315 | 1.6 | 4.8 | 0.00 | 0.00 | 0.00 | 10 | 1017.6 |
| 20260905025424 | 12 | 315 | 1.6 | 3.2 | 0.00 | 0.00 | 0.00 | 10 | 1018.4 |
| 20260905024913 | 12 | 315 | 3.2 | 4.8 | 0.00 | 0.00 | 0.00 | 10 | 1017.9 |
| 20260905024403 | 12 | 315 | 1.6 | 4.8 | 0.00 | 0.00 | 0.00 | 10 | 1017.7 |
| 20260905023852 | 12 | 315 | 1.6 | 3.2 | 0.00 | 0.00 | 0.00 | 10 | 1017.6 |
| 20260905023341 | 12 | 315 | 1.6 | 4.8 | 0.00 | 0.00 | 0.00 | 10 | 1017.6 |
| 20260905022831 | 12 | 315 | 1.6 | 4.8 | 0.00 | 0.00 | 0.00 | 10 | 1017.5 |
| 20260905022320 | 12 | 315 | 1.6 | 4.8 | 0.00 | 0.00 | 0.00 | 10 | 1017.4 |
| 20260905021810 | 12 | 315 | 3.2 | 6.4 | 0.00 | 0.00 | 0.00 | 10 | 1017.3 |
| 20260905021259 | 12 | 315 | 1.6 | 3.2 | 0.00 | 0.00 | 0.00 | 10 | 1017.1 |
| 20260905020749 | 13 | 315 | 1.6 | 3.2 | 0.00 | 0.00 | 0.00 | 10 | 1017.2 |
| 20260905020238 | 13 | 315 | 1.6 | 3.2 | 0.00 | 0.00 | 0.00 | 10 | 1017.1 |
| 20260905015727 | 13 | 315 | 1.6 | 4.8 | 0.00 | 0.00 | 0.00 | 10 | 1017.2 |
| 20260905015217 | 13 | 315 | 1.6 | 3.2 | 0.00 | 0.00 | 0.00 | 10 | 1016.6 |
| 20260905014706 | 13 | 315 | 0.0 | 3.2 | 0.00 | 0.00 | 0.00 | 10 | 1016.6 |
| 20260905014155 | 13 | 315 | 1.6 | 3.2 | 0.00 | 0.00 | 0.00 | 10 | 1016.8 |
| 20260905013645 | 13 | 315 | 1.6 | 1.6 | 0.00 | 0.00 | 0.00 | 10 | 1016.8 |
| 20260905012623 | 13 | 315 | 1.6 | 4.8 | 0.00 | 0.00 | 0.00 | 10 | 1016.7 |
| 20260905012113 | 13 | 315 | 3.2 | 4.8 | 0.00 | 0.00 | 0.00 | 10 | 1016.7 |
| 20260905011602 | 13 | 315 | 3.2 | 4.8 | 0.00 | 0.00 | 0.00 | 10 | 1016.9 |
| 20260905011051 | 13 | 315 | 1.6 | 4.8 | 0.00 | 0.00 | 0.00 | 10 | 1016.6 |
| 20260905010541 | 13 | 315 | 3.2 | 6.4 | 0.00 | 0.00 | 0.00 | 10 | 1016.7 |
| 20260905010030 | 14 | 315 | 3.2 | 4.8 | 0.00 | 0.00 | 0.00 | 10 | 1016.6 |
| 20260905005519 | 14 | 315 | 1.6 | 4.8 | 0.00 | 0.00 | 0.00 | 10 | 1016.5 |
| 20260905005008 | 15 | 315 | 3.2 | 8.0 | 0.00 | 0.00 | 0.00 | 10 | 1016.5 |
| 20260905004458 | 15 | 315 | 3.2 | 9.7 | 0.00 | 0.00 | 0.00 | 10 | 1016.5 |
| 20260905003947 | 15 | 315 | 3.2 | 4.8 | 0.00 | 0.00 | 0.00 | 10 | 1016.4 |
| 20260905003436 | 15 | 315 | 3.2 | 4.8 | 0.00 | 0.00 | 0.00 | 10 | 1016.4 |
| 20260905002925 | 15 | 315 | 3.2 | 8.0 | 0.00 | 0.00 | 0.00 | 10 | 1016.3 |
| 20260905002414 | 15 | 315 | 1.6 | 4.8 | 0.00 | 0.00 | 0.00 | 10 | 1016.1 |
| 20260905001352 | 16 | 315 | 1.6 | 4.8 | 0.00 | 0.00 | 0.00 | 10 | 1016.0 |
| 20260905000842 | 16 | 315 | 1.6 | 4.8 | 0.00 | 0.00 | 0.00 | 10 | 1016.0 |
| 20260904235820 | 17 | 315 | 1.6 | 4.8 | 0.00 | 0.00 | 0.00 | 10 | 1015.8 |
| 20260904235308 | 17 | 315 | 3.2 | 6.4 | 0.00 | 0.00 | 0.00 | 10 | 1015.5 |
| 20260904234757 | 18 | 315 | 3.2 | 9.7 | 0.00 | 0.00 | 0.00 | 10 | 1015.3 |
| 20260904234246 | 18 | 315 | 3.2 | 6.4 | 0.00 | 0.00 | 0.00 | 98 | 1015.0 |
| 20260904233735 | 18 | 315 | 3.2 | 6.4 | 0.00 | 0.00 | 0.00 | 94 | 1014.7 |
| 20260904232712 | 18 | 315 | 3.2 | 9.7 | 0.00 | 0.00 | 0.00 | 92 | 1014.4 |
| 20260904232201 | 18 | 315 | 3.2 | 4.8 | 0.00 | 0.00 | 0.00 | 91 | 1014.4 |
| 20260904231650 | 19 | 315 | 4.8 | 6.4 | 0.00 | 0.00 | 0.00 | 90 | 1014.4 |
| 20260904231139 | 19 | 315 | 4.8 | 8.0 | 0.00 | 0.00 | 0.00 | 90 | 1014.4 |
| 20260904230627 | 19 | 315 | 4.8 | 6.4 | 0.00 | 0.00 | 0.00 | 90 | 1014.4 |
| 20260904230116 | 19 | 315 | 4.8 | 6.4 | 0.00 | 0.00 | 0.00 | 89 | 1014.4 |
| 20260904225605 | 19 | 315 | 4.8 | 6.4 | 0.00 | 0.00 | 0.00 | 89 | 1014.2 |
| 20260904225054 | 19 | 315 | 4.8 | 6.4 | 0.00 | 0.00 | 0.00 | 90 | 1014.3 |
| 20260904224542 | 19 | 315 | 4.8 | 6.4 | 0.00 | 0.00 | 0.00 | 90 | 1014.3 |
| 20260904224031 | 19 | 315 | 4.8 | 6.4 | 0.00 | 0.00 | 0.00 | 90 | 1014.3 |
| 20260904223520 | 18 | 315 | 4.8 | 9.7 | 0.00 | 0.00 | 0.00 | 90 | 1014.4 |
| 20260904223009 | 18 | 315 | 4.8 | 6.4 | 0.00 | 0.00 | 0.00 | 91 | 1014.4 |
| 20260904222457 | 18 | 315 | 4.8 | 8.0 | 0.00 | 0.00 | 0.00 | 90 | 1014.4 |
| 20260904221946 | 18 | 315 | 4.8 | 6.4 | 0.00 | 0.00 | 0.00 | 90 | 1014.4 |
| 20260904221435 | 18 | 315 | 4.8 | 8.0 | 0.00 | 0.00 | 0.00 | 89 | 1014.4 |
| 20260904220924 | 19 | 315 | 4.8 | 6.4 | 0.00 | 0.00 | 0.00 | 87 | 1014.4 |
| 20260904220412 | 19 | 315 | 4.8 | 8.0 | 0.00 | 0.00 | 0.00 | 87 | 1014.4 |
| 20260904215350 | 19 | 315 | 4.8 | 6.4 | 0.00 | 0.00 | 0.00 | 84 | 1014.3 |
| 20260904214839 | 19 | 315 | 4.8 | 6.4 | 0.00 | 0.00 | 0.00 | 83 | 1014.3 |
| 20260904214327 | 19 | 315 | 4.8 | 6.4 | 0.00 | 0.00 | 0.00 | 83 | 1014.3 |
| 20260904213816 | 19 | 315 | 4.8 | 6.4 | 0.00 | 0.00 | 0.00 | 82 | 1014.2 |
| 20260904213305 | 19 | 315 | 4.8 | 8.0 | 0.00 | 0.00 | 0.00 | 81 | 1014.3 |
| 20260904212753 | 19 | 315 | 4.8 | 6.4 | 0.00 | 0.00 | 0.00 | 81 | 1014.2 |
| 20260904212242 | 19 | 315 | 4.8 | 6.4 | 0.00 | 0.00 | 0.00 | 81 | 1014.4 |
| 20260904211731 | 19 | 315 | 4.8 | 6.4 | 0.00 | 0.00 | 0.00 | 81 | 1014.3 |
| 20260904211219 | 20 | 315 | 4.8 | 8.0 | 0.00 | 0.00 | 0.00 | 80 | 1014.3 |
| 20260904210708 | 20 | 315 | 4.8 | 6.4 | 0.00 | 0.00 | 0.00 | 79 | 1014.2 |
| 20260904205645 | 20 | 315 | 4.8 | 6.4 | 0.00 | 0.00 | 0.00 | 78 | 1014.3 |
| 20260904205134 | 20 | 315 | 4.8 | 8.0 | 0.00 | 0.00 | 0.00 | 77 | 1014.4 |
| 20260904204623 | 20 | 315 | 4.8 | 6.4 | 0.00 | 0.00 | 0.00 | 78 | 1014.4 |
| 20260904204111 | 20 | 315 | 4.8 | 6.4 | 0.00 | 0.00 | 0.00 | 78 | 1014.4 |
| 20260904203600 | 20 | 315 | 4.8 | 6.4 | 0.00 | 0.00 | 0.00 | 77 | 1014.4 |
| 20260904203048 | 20 | 315 | 4.8 | 6.4 | 0.00 | 0.00 | 0.00 | 78 | 1014.4 |
| 20260904202537 | 20 | 315 | 4.8 | 6.4 | 0.00 | 0.00 | 0.00 | 77 | 1014.4 |
| 20260904202026 | 20 | 315 | 6.4 | 8.0 | 0.00 | 0.00 | 0.00 | 77 | 1014.5 |
| 20260904201514 | 20 | 315 | 4.8 | 8.0 | 0.00 | 0.00 | 0.00 | 77 | 1014.6 |
| 20260904201003 | 20 | 315 | 4.8 | 6.4 | 0.00 | 0.00 | 0.00 | 77 | 1014.6 |
| 20260904200452 | 20 | 315 | 6.4 | 6.4 | 0.00 | 0.00 | 0.00 | 77 | 1014.6 |
| 20260904195940 | 20 | 315 | 4.8 | 6.4 | 0.00 | 0.00 | 0.00 | 77 | 1014.6 |
| 20260904195429 | 20 | 315 | 4.8 | 8.0 | 0.00 | 0.00 | 0.00 | 77 | 1014.6 |
| 20260904194917 | 20 | 315 | 4.8 | 6.4 | 0.00 | 0.00 | 0.00 | 77 | 1014.7 |
| 20260904194406 | 20 | 315 | 4.8 | 6.4 | 0.00 | 0.00 | 0.00 | 77 | 1014.7 |
| 20260904193854 | 20 | 315 | 4.8 | 6.4 | 0.00 | 0.00 | 0.00 | 77 | 1014.6 |
| 20260904193343 | 20 | 315 | 4.8 | 8.0 | 0.00 | 0.00 | 0.00 | 76 | 1014.7 |
| 20260904192832 | 21 | 315 | 6.4 | 8.0 | 0.00 | 0.00 | 0.00 | 75 | 1014.7 |
| 20260904192321 | 21 | 315 | 6.4 | 8.0 | 0.00 | 0.00 | 0.00 | 76 | 1014.7 |
| 20260904191809 | 20 | 315 | 6.4 | 6.4 | 0.00 | 0.00 | 0.00 | 76 | 1014.8 |
| 20260904191257 | 20 | 315 | 4.8 | 4.8 | 0.00 | 0.00 | 0.00 | 77 | 1015.0 |
| 20260904190746 | 21 | 315 | 4.8 | 6.4 | 0.00 | 0.00 | 0.00 | 76 | 1015.1 |
| 20260904185723 | 21 | 315 | 3.2 | 4.8 | 0.00 | 0.00 | 0.00 | 76 | 1015.2 |
| 20260904185211 | 21 | 315 | 3.2 | 4.8 | 0.00 | 0.00 | 0.00 | 76 | 1015.2 |
| 20260904184700 | 21 | 315 | 3.2 | 4.8 | 0.00 | 0.00 | 0.00 | 76 | 1015.1 |
| 20260904184148 | 21 | 315 | 3.2 | 4.8 | 0.00 | 0.00 | 0.00 | 76 | 1015.1 |
| 20260904183637 | 21 | 315 | 3.2 | 6.4 | 0.00 | 0.00 | 0.00 | 76 | 1015.2 |